Location: Rounton
(54.4000°N, 1.3500°W)
Time: 05:28:44
(UTC+01:00)

N. Korean satellite - Visible Passes

Search period start: 26 October 2021 00:00
Search period end: 04 November 2021 23:00
Orbit: 450 x 495 km, 97.3° (Epoch: 25 October)

Date Brightness Start Highest point End Pass type
(mag) Time Alt. Az. Time Alt. Az. Time Alt. Az.
26 Oct 9.4 05:36:39 10° NE 05:39:28 21° E 05:42:16 10° SE visible
26 Oct 6.9 07:09:23 10° N 07:12:53 44° WNW 07:16:22 10° SW visible
27 Oct 10.1 05:09:52 10° ENE 05:11:03 11° E 05:12:14 10° ESE visible
27 Oct 6.5 06:41:09 10° NNE 06:44:50 86° WNW 06:48:28 10° SSW visible
28 Oct 7.7 06:13:05 10° NNE 06:16:40 47° E 06:20:10 10° S visible
28 Oct 9.8 18:27:57 10° SW 18:30:31 18° W 18:33:09 10° NW visible
29 Oct 9.0 05:45:18 10° NE 05:48:22 25° E 05:51:24 10° SSE visible
29 Oct 7.2 07:18:17 10° N 07:21:40 36° WNW 07:25:01 10° SW visible
30 Oct 9.9 05:18:03 10° NE 05:19:57 14° E 05:21:50 10° ESE visible
30 Oct 6.5 06:49:58 10° N 06:53:37 70° WNW 06:57:12 10° SSW visible
31 Oct 7.2 05:21:50 10° NNE 05:25:27 59° E 05:29:01 10° S visible
31 Oct 9.9 17:37:09 10° SW 17:39:22 15° W 17:41:36 10° NW visible
01 Nov 8.6 04:53:55 10° NNE 04:57:11 30° E 05:00:22 10° SSE visible
01 Nov 7.4 06:27:09 10° N 06:30:22 30° WNW 06:33:32 10° SW visible
01 Nov 9.1 17:07:48 10° SSW 17:10:57 28° W 17:14:10 10° NW visible
02 Nov 9.7 04:26:24 10° NE 04:28:46 16° E 04:31:06 10° SE visible
02 Nov 6.6 05:58:44 10° N 06:02:20 56° WNW 06:05:51 10° SSW visible
03 Nov 6.8 05:30:31 10° NNE 05:34:10 73° ESE 05:37:44 10° S visible
03 Nov 10.1 17:46:29 10° WSW 17:48:09 13° W 17:49:51 10° WNW visible
04 Nov 8.2 05:02:30 10° NNE 05:05:53 36° E 05:09:13 10° SSE visible
04 Nov 7.6 06:35:58 10° N 06:38:58 25° WNW 06:41:57 10° WSW visible
04 Nov 9.5 17:16:43 10° SSW 17:19:41 23° W 17:22:40 10° NW visible
